Terug naar catalogus

STARLINK-36570

ActiefCommunicatieVLEO
NORAD 67640·PAYLOAD·🇺🇸 United States

Gelanceerd Jan 30, 2026 vanaf Cape Canaveral Space Force Station

Loading…

Volgende Passages (komende 24 uur)

TLE

VersSource: CelesTrak SupGP

Epoch: Sep 14, 2026, 14:43 UTC

1 67640C 26020Z   26257.61368056  .00038214  00000+0  13843-2 0  2575
2 67640  43.0018 152.6273 0001434 263.6995 305.9808 15.27555800    11

Volg STARLINK-36570 in realtime met AllMySat

Download on the App Store